Weather History for False Pass, AK

Change the Weather History Date:

Friday, December 7, 2012

  Actual Average (PACD) Record (PACD)
Temperature  
Mean Temperature 22 °F 32 °F  
Max Temperature 28 °F 37 °F 47 °F (2013)
Min Temperature 17 °F 28 °F 8 °F (1999)
Degree Days  
Heating Degree Days 42 33  
Month to date heating degree days 228  
Since 1 July heating degree days 3254  
Cooling Degree Days 0    
Month to date cooling degree days  
Year to date cooling degree days  
Moisture  
Dew Point 19 °F    
Average Humidity 86    
Maximum Humidity 96    
Minimum Humidity 74    
Precipitation  
Precipitation 0.00 in 0.16 in 1.30 in (2000)
Month to date precipitation 1.14  
Year to date precipitation 38.35  
Snow  
Snow 0.00 in 0.40 in 2.50 in (1971)
Month to date snowfall 2.8  
Since 1 July snowfall 15.4  
Snow Depth -    
Sea Level Pressure  
Sea Level Pressure 29.74 in    
Wind  
Wind Speed 10 mph (NW)    
Max Wind Speed 16 mph    
Max Gust Speed 24 mph    
Visibility 8 miles    
Events Snow    
T = Trace of Precipitation, MM = Missing Value Source: NWS Daily Summary

Daily Weather History Graph

Daily Weather History Graph

Search for Another Location

Airport:

Trip Planner

Search our weather history database for the weather conditions in past years. The results will help you decide how hot, cold, wet, or windy it might be!

Date:

Astronomy

Dec. 07, 2012 Rise Set
Actual Time 9:03 AM HAST 4:27 PM HAST
Civil Twilight 8:19 AM HAST 5:11 PM HAST
Nautical Twilight 7:32 AM HAST 5:58 PM HAST
Astronomical Twilight 6:48 AM HAST 6:42 PM HAST
Moon 1:41 AM HAST (12/7) 1:19 PM HAST (12/7)
Length of Visible Light 8h 52m
Length of Day
7h 23m
Last Quarter, 36% of the Moon is Illuminated
Dec 7
Last Quarter
Dec 12
New
Dec 19
First Quarter
Dec 28
Full
Jan 4
Last Quarter

Hourly Weather History & Observations

Time (HAST) Temp. Windchill Dew Point Humidity Pressure Visibility Wind Dir Wind Speed Gust Speed Precip Events Conditions
12:01 AM 19.0 °F 6.1 °F 14.0 °F 81% 30.21 in 10.0 mi NW 12.7 mph - 0.00 in   Overcast
1:01 AM 19.0 °F 6.1 °F 15.1 °F 85% 30.19 in 10.0 mi NW 12.7 mph - N/A   Overcast
3:01 AM 18.0 °F 3.1 °F 14.0 °F 84% 30.14 in 10.0 mi NW 16.1 mph - 0.00 in Snow Light Snow
3:11 AM 17.6 °F 2.7 °F 15.8 °F 93% 29.84 in 9.0 mi NW 16.1 mph - 0.00 in Snow Light Snow
4:01 AM 18.0 °F 6.9 °F 14.0 °F 84% 30.12 in 10.0 mi NW 9.2 mph 17.3 mph 0.00 in   Overcast
5:01 AM 18.0 °F 4.2 °F 14.0 °F 84% 30.09 in 10.0 mi NW 13.8 mph - N/A   Mostly Cloudy
5:12 AM 17.6 °F 3.2 °F 15.8 °F 93% 29.79 in 10.0 mi NW 15.0 mph - N/A   Mostly Cloudy
6:01 AM 19.0 °F 5.6 °F 15.1 °F 85% 30.06 in 10.0 mi NW 13.8 mph 21.9 mph N/A   Overcast
6:17 AM 19.4 °F 5.0 °F 15.8 °F 86% 29.75 in 10.0 mi NNW 16.1 mph - N/A   Mostly Cloudy
7:01 AM 19.9 °F 7.3 °F 15.1 °F 81% 30.03 in 10.0 mi NW 12.7 mph 19.6 mph N/A   Scattered Clouds
8:01 AM 21.0 °F - 14.0 °F 74% 30.00 in 10.0 mi Calm Calm - N/A   Overcast
9:01 AM 21.0 °F 14.6 °F 14.0 °F 74% 29.97 in 10.0 mi WSW 4.6 mph - N/A   Overcast
10:01 AM 21.0 °F 14.6 °F 14.0 °F 74% 29.95 in 10.0 mi SSW 4.6 mph - N/A   Overcast
11:01 AM 23.0 °F 9.6 °F 17.1 °F 78% 29.93 in 10.0 mi North 16.1 mph 20.7 mph N/A   Overcast
11:13 AM 23.0 °F 12.4 °F 15.8 °F 74% 29.64 in 10.0 mi NNW 10.4 mph 19.6 mph N/A   Overcast
12:01 PM 24.1 °F 14.4 °F 18.0 °F 77% 29.90 in 10.0 mi NNW 9.2 mph - 0.00 in Snow Light Snow
1:01 PM 24.1 °F 11.5 °F 19.0 °F 81% 29.87 in 10.0 mi North 15.0 mph 19.6 mph 0.00 in   Overcast
2:01 PM 25.0 °F 14.8 °F 21.0 °F 85% 29.84 in 10.0 mi NNW 10.4 mph 18.4 mph N/A   Overcast
3:01 PM 25.0 °F 13.1 °F 21.0 °F 85% 29.80 in 9.0 mi NNW 13.8 mph 21.9 mph 0.00 in Snow Light Snow
4:01 PM 25.0 °F 12.6 °F 19.9 °F 81% 29.77 in 10.0 mi NNW 15.0 mph 24.2 mph 0.00 in   Overcast
5:01 PM 25.0 °F 12.6 °F 21.9 °F 88% 29.74 in 10.0 mi NNW 15.0 mph 19.6 mph 0.00 in   Overcast
6:45 PM 24.8 °F - 23.0 °F 93% 29.41 in 2.5 mi Calm Calm - 0.00 in Snow Light Snow
7:01 PM 25.0 °F 18.1 °F 23.0 °F 92% 29.69 in 2.0 mi Variable 5.8 mph - 0.00 in Snow Light Snow
7:21 PM 24.8 °F 19.1 °F 23.0 °F 93% 29.38 in 3.0 mi SSW 4.6 mph - 0.00 in Snow Light Snow
7:32 PM 24.8 °F 19.1 °F 23.0 °F 93% 29.37 in 2.5 mi SW 4.6 mph - 0.00 in Snow Light Snow
7:45 PM 24.8 °F - 23.0 °F 93% 29.36 in 1.5 mi Calm Calm - 0.00 in Snow Light Snow
8:01 PM 25.0 °F 18.1 °F 23.0 °F 92% 29.63 in 1.2 mi SW 5.8 mph - 0.00 in Snow Light Snow
8:08 PM 24.8 °F 19.1 °F 23.0 °F 93% 29.35 in 3.0 mi SSW 4.6 mph - 0.00 in Snow Light Snow
8:38 PM 26.6 °F 22.6 °F 24.8 °F 93% 29.33 in 9.0 mi North 3.5 mph - 0.00 in Snow Light Snow
9:01 PM 27.0 °F 19.5 °F 25.0 °F 92% 29.60 in 9.0 mi North 6.9 mph - 0.00 in   Overcast
10:01 PM 27.0 °F 21.6 °F 26.1 °F 96% 29.54 in 3.0 mi South 4.6 mph - 0.00 in   Overcast
10:29 PM 28.4 °F - 26.6 °F 93% 29.23 in 4.0 mi Calm Calm - 0.00 in Snow Light Snow
11:01 PM 28.0 °F - 27.0 °F 96% 29.47 in 7.0 mi Calm Calm - 0.00 in Snow Light Snow
11:30 PM 28.4 °F - 26.6 °F 93% 29.16 in 8.0 mi Calm Calm - 0.00 in Snow Light Snow